Temp_Advection
nan nan nan nan nan nan nan nan nan nan nan nan nan nan nan nan nan nan nan nan nan nan nan nan nan nan nan nan nan nan nan nan nan nan nan nan nan nan nan nan nan nan nan nan nan nan nan nan nan
nan 0 -0 -0 -0 0 -0 -0 -0 0 0 0 -0 -0 -0 0 0 0 0 -0 0 0 0 -0 0 0 0 0 0 0 0 0 0 0 0 0 0 0 0 -0 0 0 0 0 0 0 -0 -0 nan
nan 0 -0 -1 0 -0 -0 -0 0 0 -0 -0 -0 -0 -0 -0 0 0 0 -0 0 0 0 0 0 0 0 0 0 0 0 0 0 0 0 0 0 0 -0 0 -0 -0 0 0 0 0 0 -0 nan
nan 0 -0 -0 -0 -0 -0 -0 -0 0 0 0 -0 -0 0 0 0 0 0 0 0 0 0 0 0 0 0 0 0 0 0 0 -0 0 0 0 0 0 0 0 0 -0 0 0 0 0 0 0 nan
nan -0 -0 -0 -0 0 -0 -0 -0 0 0 0 -0 -0 0 0 0 0 0 0 0 -0 -0 0 0 0 0 0 0 0 0 0 0 0 0 0 0 0 0 0 0 0 0 0 0 0 0 0 nan
nan -0 -0 -0 -0 -0 -0 -0 0 -0 -0 -0 -0 0 0 0 0 0 0 -0 0 -0 -0 -0 0 0 0 0 0 0 0 0 0 0 0 0 0 0 0 0 0 0 0 0 0 0 0 0 nan
nan -0 -0 -0 -0 -0 -0 0 0 -0 0 0 -0 -0 0 0 0 0 0 0 -0 -0 0 -0 -0 -0 -0 -0 -0 -0 0 0 0 0 0 0 0 0 -0 0 0 0 0 0 0 0 0 -0 nan
nan -0 0 0 -0 -0 0 0 0 -0 -0 0 -0 -0 -0 0 0 0 0 0 0 0 0 0 -0 -0 -0 -0 -0 -0 0 0 0 0 0 0 -0 0 0 0 -0 0 0 0 0 0 0 -0 nan
nan -0 -0 -0 0 -0 0 0 0 0 0 0 0 -0 -0 -0 -0 0 0 0 0 0 0 0 0 0 0 0 0 0 0 0 0 0 0 0 0 -0 -0 -0 -0 -0 -0 0 -0 0 0 0 nan
nan -0 -0 0 -0 -0 0 0 0 0 0 -0 0 0 0 -0 -0 -0 0 0 0 0 0 0 0 0 0 0 0 0 0 0 0 0 0 -0 -0 0 0 0 0 -0 -0 -0 0 0 0 0 nan
nan -0 -0 -0 -0 -0 0 0 0 0 -0 -0 -0 -0 -0 -0 0 0 0 0 0 0 0 0 0 0 0 0 0 0 0 0 0 0 0 0 -0 -0 -0 0 0 -0 0 -0 -0 0 0 0 nan
nan 0 -0 -0 -0 0 0 0 0 -0 -0 -0 -0 -0 -0 0 0 0 0 0 0 0 0 0 -0 -0 0 0 0 0 0 0 0 -0 -0 -0 -0 -0 -0 0 0 0 0 -0 0 0 0 0 nan
nan 0 -0 -0 -0 0 -0 0 -0 -0 -0 0 0 0 0 0 0 0 0 0 0 0 0 -0 -0 -0 -0 0 0 0 0 -0 0 0 0 -0 -0 -0 -0 -0 -0 -0 -0 0 0 -0 0 0 nan
nan 0 -0 0 -0 0 0 -0 0 -0 0 0 0 0 0 0 0 -0 0 0 0 0 -0 -0 -0 -0 0 0 0 0 -0 0 0 0 -0 -0 0 0 0 0 -0 -0 -0 -0 0 0 0 0 nan
nan -0 -0 0 0 -0 0 0 -0 0 0 0 0 0 0 0 0 0 0 0 0 0 -0 -0 0 0 0 0 0 0 0 0 0 0 0 0 0 -0 0 0 0 0 -0 -0 -0 -0 0 0 nan
nan -0 -0 0 0 -0 0 -0 0 0 0 0 0 0 0 0 0 0 0 0 0 0 0 -0 -0 0 0 -0 -0 -0 -0 -0 -0 -0 -0 -0 0 0 0 -0 0 0 0 0 -0 -0 -0 0 nan
nan -0 -0 -0 0 0 0 -0 -0 0 0 0 0 0 0 0 0 0 0 0 0 0 0 0 0 -0 -0 -0 -0 -0 -0 -0 -0 -0 -0 -0 -0 -0 0 0 0 0 0 0 0 -0 -0 -0 nan
nan -0 -0 -0 0 0 0 -0 -0 -0 0 0 0 0 0 0 0 0 0 0 0 0 0 -0 -0 -0 -0 -0 -0 -0 -0 -0 -0 -0 -0 -0 -0 -0 0 0 0 0 0 0 0 0 -0 -0 nan
nan -0 -0 0 0 0 0 -0 -0 0 0 0 0 0 0 0 0 0 0 0 0 0 0 0 -0 -0 -0 -0 -1 -1 -0 -0 0 -0 -0 -0 -0 -0 -0 -0 0 0 -0 0 1 0 -0 -0 nan
nan 0 -0 -0 0 0 -0 0 -0 0 -0 -0 -0 -0 -0 0 0 0 0 0 0 0 0 0 -0 -0 -0 -0 -0 -1 -1 -1 -0 -0 0 -0 -0 -1 -0 -0 -0 0 0 0 0 0 0 -0 nan
nan 0 -0 0 -0 -0 -0 -0 -0 0 0 -0 -0 -0 0 0 0 0 0 0 0 0 0 0 0 -0 -0 -0 -0 -1 -1 -1 -0 -0 -0 0 0 -0 -0 -1 -1 -0 -0 -0 1 1 -0 -0 nan
nan -0 -0 0 -0 0 -0 -0 -0 0 0 0 0 0 0 1 0 0 0 0 0 0 0 0 0 0 -0 -0 -0 -1 -1 -1 -1 -1 -1 -0 0 0 0 -0 -0 -0 -0 0 0 -1 -0 0 nan
nan -0 -0 -0 -0 -0 0 0 -1 -0 -0 0 0 0 1 0 0 0 0 0 0 0 0 0 0 -0 -0 -0 -0 -1 -0 -0 -1 -0 -1 -1 -0 -0 0 0 -0 -0 -0 -0 -0 -0 -0 0 nan
nan -0 -1 -0 -0 -0 -0 -0 -0 -0 0 0 0 0 1 0 0 0 0 0 0 0 0 -0 -0 -0 -0 -0 0 -0 -0 -0 -0 -0 -0 -0 -0 -0 0 0 -0 -0 -0 -0 -0 -0 -0 -0 nan
nan -1 -0 0 0 -0 -0 0 -1 -0 0 0 -0 0 1 1 0 0 0 0 0 0 -0 -0 -0 -0 -0 -0 -0 0 -0 -0 -0 -0 -0 -0 -0 -1 -0 0 0 -0 -0 -0 -0 -0 -0 -0 nan
nan -0 -0 -0 -0 -0 0 -0 -0 0 -0 -0 -0 0 0 1 0 0 0 0 0 0 -0 -0 -0 -0 -0 -0 -0 -0 -0 -0 -0 -1 -1 -1 -1 -1 -1 -0 0 0 0 0 -0 -0 -0 -0 nan
nan 0 -0 -0 -0 0 -0 -0 -0 -0 -0 0 1 1 0 0 0 0 0 0 0 -0 -0 -0 -0 -0 -0 -0 -0 0 0 -0 -0 -0 -0 -0 -0 -0 -1 -1 -1 -0 0 0 0 -0 -0 -0 nan
nan -0 -0 -0 0 0 -0 -0 -0 -0 0 0 0 0 0 0 0 0 0 0 0 0 0 -0 -0 -0 -0 -0 -0 -0 0 0 0 0 0 -0 -0 0 0 0 -0 -1 -0 -0 0 -0 0 0 nan
nan 0 -0 -0 -0 0 -0 -0 -0 -0 0 -0 -0 -0 0 0 0 0 0 0 0 0 0 -0 -0 -0 -0 -0 -0 -1 -0 -0 0 0 0 -0 -0 0 0 0 0 0 -0 0 -0 -0 0 0 nan
nan nan nan nan nan nan nan nan nan nan nan nan nan nan nan nan nan nan nan nan nan nan nan nan nan nan nan nan nan nan nan nan nan nan nan nan nan nan nan nan nan nan nan nan nan nan nan nan nan
Wind_Speed
1 3 3 2 3 5 3 4 1 1 2 2 4 4 7 5 2 3 11 12 12 12 10 8 8 10 10 10 11 11 11 10 9 8 7 6 6 7 6 6 5 7 8 3 4 5 6 6 6
2 5 4 2 4 2 5 2 4 3 7 11 8 5 4 3 4 6 8 12 13 14 11 7 8 9 10 10 9 9 9 9 8 7 7 6 6 6 5 5 5 8 7 3 4 4 5 4 4
3 6 1 4 3 4 4 3 5 2 10 2 4 6 3 3 5 6 6 11 12 15 12 8 9 9 9 9 8 9 9 8 7 6 6 5 4 5 5 5 6 6 6 3 4 3 3 3 3
3 2 4 4 4 5 3 1 1 3 4 3 10 5 4 3 5 7 8 10 12 14 13 9 9 8 8 7 6 7 8 7 7 6 5 5 4 5 4 4 6 7 6 3 5 4 2 1 2
3 2 3 2 4 3 3 2 2 1 2 3 3 4 3 8 12 10 7 7 10 16 14 13 11 10 9 8 7 6 5 7 7 7 6 5 6 5 5 5 5 7 7 5 6 6 5 3 3
2 3 3 2 4 3 4 2 0 1 2 3 5 6 4 14 12 11 9 8 8 9 11 10 9 10 9 10 10 8 7 6 7 6 9 9 8 7 6 6 6 7 8 7 7 10 9 5 4
5 4 3 2 3 4 3 2 2 3 2 3 8 4 8 14 11 10 8 7 7 7 5 5 4 11 11 9 12 11 10 10 8 6 7 7 9 8 7 7 7 8 8 9 9 11 12 7 5
3 4 2 3 3 5 2 3 3 2 1 5 2 4 6 16 12 9 7 6 6 6 4 4 4 4 4 3 2 7 10 9 10 9 9 9 8 8 10 9 9 10 10 10 11 11 13 11 8
3 4 2 4 5 3 2 2 2 3 5 3 2 5 9 17 12 9 6 5 5 5 6 6 6 6 7 8 7 5 6 9 10 10 10 10 9 9 10 11 12 12 12 12 11 12 14 13 11
3 3 7 3 4 3 3 2 5 3 3 3 5 7 18 15 11 8 4 3 4 4 5 5 6 7 6 5 6 9 9 8 7 8 8 11 13 13 13 12 13 14 14 14 14 14 15 16 15
3 3 2 2 3 4 5 3 2 5 2 6 14 18 17 13 9 5 4 4 4 3 2 2 1 3 6 6 4 4 4 5 6 6 7 8 8 11 13 16 14 14 15 16 16 16 17 20 18
1 1 2 2 2 2 5 5 1 5 2 6 15 17 15 12 8 5 5 6 6 5 5 5 5 5 4 5 4 2 1 1 2 3 5 7 8 9 10 10 10 12 14 16 17 18 19 20 20
1 1 1 1 1 0 2 2 1 5 4 12 16 14 12 10 8 9 8 8 8 8 11 13 13 12 12 9 7 5 2 1 3 6 8 9 10 10 11 11 10 10 11 13 14 17 20 21 21
2 1 1 1 1 0 1 2 4 3 11 18 16 12 10 10 11 11 11 10 10 12 14 15 14 15 14 12 10 8 6 5 4 4 7 10 12 13 14 14 13 13 14 15 15 18 17 20 23
1 2 3 3 2 1 1 4 5 8 15 15 12 10 10 12 12 10 11 10 11 13 12 12 10 10 7 6 4 4 6 7 8 9 10 11 12 13 14 14 14 13 13 13 14 15 19 21 16
2 4 2 2 4 0 2 7 3 11 19 16 12 9 12 12 12 11 11 10 12 10 9 7 5 4 4 6 9 12 13 14 14 14 15 16 18 19 18 18 17 17 15 14 14 13 14 17 19
5 2 3 4 6 3 1 5 4 5 18 18 13 11 14 14 13 12 10 11 12 9 6 3 0 4 8 11 14 17 18 18 19 19 19 18 18 20 22 23 22 21 20 18 16 15 14 14 15
3 2 4 4 1 0 2 7 4 4 14 16 13 15 15 15 15 13 13 13 10 7 4 2 5 8 12 16 19 20 21 21 20 20 20 20 20 21 22 23 23 24 23 22 20 17 16 15 13
2 2 3 1 0 2 6 6 7 5 8 12 12 16 17 17 15 14 15 13 9 6 4 5 8 11 16 20 23 25 25 24 23 23 22 21 20 20 22 23 24 24 24 23 23 20 17 17 15
4 1 5 2 1 2 3 9 8 6 8 18 21 17 19 19 18 19 17 13 9 6 6 7 10 14 18 21 23 25 28 28 27 25 23 20 18 18 19 21 22 23 25 24 24 23 21 18 19
2 4 3 4 1 2 4 7 4 3 4 9 17 24 22 25 23 22 18 14 10 8 7 8 11 14 17 20 22 24 24 24 24 22 19 16 15 16 17 18 19 21 23 26 25 23 22 20 19
2 1 2 1 3 3 4 4 5 4 5 3 9 19 23 26 24 22 19 14 11 8 7 9 12 14 17 21 23 24 24 23 22 23 22 19 16 17 21 20 19 19 21 22 22 24 24 25 22
3 3 4 3 4 4 2 3 7 1 5 6 6 14 25 25 24 21 17 13 9 6 7 9 12 15 19 22 23 22 21 20 22 22 22 20 18 18 18 22 22 21 21 22 22 24 25 26 28
6 4 6 4 3 2 4 5 5 5 6 4 5 19 27 27 23 18 14 9 6 5 6 10 14 16 19 21 20 19 20 22 23 23 23 22 22 22 21 24 25 24 23 22 23 25 27 25 28
3 5 2 4 3 5 3 0 7 5 4 5 11 23 26 26 23 18 12 8 4 4 7 11 15 17 19 21 21 19 19 22 25 26 27 28 28 25 24 24 22 23 22 22 21 22 27 28 26
2 4 5 6 3 4 2 5 5 4 10 6 17 25 24 22 18 14 10 6 4 4 8 12 15 16 19 21 21 21 23 25 25 25 26 27 27 27 26 26 24 21 21 22 22 24 25 27 30
3 2 4 5 1 2 3 6 8 3 3 8 18 22 20 17 15 12 8 5 3 6 10 12 14 16 18 21 23 21 19 20 21 20 18 17 17 19 20 22 24 23 24 25 25 24 26 28 29
2 5 3 2 2 3 4 4 5 6 3 2 7 16 17 14 11 9 6 5 5 8 10 12 14 16 20 22 20 17 16 16 17 17 16 17 18 19 21 22 21 25 27 30 28 28 28 28 29
2 1 3 3 4 4 1 5 6 5 7 7 9 16 15 13 9 7 6 6 7 10 11 13 14 17 20 22 19 15 13 14 16 17 19 21 21 22 22 23 23 23 23 24 25 27 29 30 29
3 6 6 4 4 1 3 6 3 7 7 16 16 16 13 10 8 5 6 7 9 9 12 14 15 17 19 22 19 16 14 16 16 17 21 20 22 24 24 27 26 21 22 18 22 23 24 28 29
Wind_Direction
208 162 146 164 60 65 252 251 239 238 56 8 114 131 129 64 114 190 148 168 155 163 171 165 153 162 168 159 160 160 159 157 158 161 166 169 165 164 162 169 173 168 158 136 114 108 116 121 128
157 154 154 113 90 82 263 247 202 193 145 111 82 84 60 83 81 129 155 169 161 171 167 166 162 164 170 173 169 163 167 167 167 166 167 161 168 171 167 170 170 173 169 158 147 123 115 122 144
133 166 148 92 106 189 234 232 176 143 170 80 104 76 84 85 89 134 160 170 164 169 175 172 160 157 181 189 182 185 181 176 175 176 177 186 183 178 180 181 181 181 186 191 179 154 136 140 164
133 153 59 95 229 245 214 225 234 116 102 150 126 64 84 113 118 130 137 162 172 164 166 168 166 167 165 173 196 207 203 198 196 196 204 214 211 203 199 195 196 196 205 207 210 215 187 183 205
136 83 47 353 266 276 264 275 214 191 111 118 148 146 80 116 125 117 108 126 175 159 164 168 165 171 177 182 182 184 181 205 217 227 223 220 223 219 227 224 218 210 211 215 222 219 218 226 241
44 61 57 268 268 286 286 251 174 73 84 110 103 105 130 141 134 121 109 117 129 159 176 172 184 183 187 195 198 200 208 201 204 220 237 241 237 236 237 242 239 233 228 231 240 233 225 223 256
113 88 213 231 263 303 239 160 168 138 92 63 133 92 149 153 148 141 140 130 125 127 133 147 164 194 196 208 213 211 210 215 231 235 238 239 239 251 249 244 248 251 249 250 253 243 233 231 259
127 96 160 244 218 264 191 128 136 111 128 117 146 164 177 170 161 162 169 171 172 175 178 187 184 183 201 227 202 209 222 226 232 238 241 244 249 256 261 262 261 260 258 259 255 246 233 241 251
157 69 224 230 163 267 178 132 134 114 130 107 134 152 161 167 165 176 191 201 208 211 213 225 232 236 234 236 237 230 226 233 237 240 247 249 251 260 262 265 263 265 265 261 259 247 238 240 248
92 121 221 202 188 223 185 148 170 143 129 83 122 138 152 166 167 171 181 202 209 222 232 241 241 239 239 239 233 233 239 243 242 243 249 255 253 258 266 267 266 263 262 260 258 253 247 244 247
153 203 266 255 237 196 163 129 164 142 232 194 160 147 155 164 168 173 185 184 207 216 215 188 202 212 219 212 200 203 221 245 252 250 249 258 263 263 266 271 272 266 263 263 262 258 249 244 247
282 270 276 323 310 179 162 144 147 210 239 198 170 158 164 172 174 188 172 156 141 121 106 96 96 103 124 162 176 164 216 253 272 281 270 269 271 274 275 276 280 279 270 268 262 259 257 256 257
182 263 68 311 270 212 163 115 169 258 229 168 164 167 171 182 187 168 160 144 129 116 103 98 95 95 98 103 105 97 76 354 292 279 283 284 285 285 283 283 282 284 281 275 270 266 261 257 254
322 306 312 229 247 245 294 279 138 215 158 152 161 171 187 192 179 169 156 145 134 121 113 104 101 95 92 92 89 82 68 47 11 323 294 283 281 280 279 279 280 283 283 279 272 261 265 265 263
116 321 317 230 209 277 175 264 236 178 174 167 172 176 181 176 176 168 155 146 140 130 121 114 104 94 86 71 41 6 337 322 313 303 294 288 284 281 278 277 278 279 280 281 280 274 258 253 269
38 48 1 284 153 11 94 271 343 189 187 186 183 190 177 174 171 168 163 156 148 140 130 118 94 64 19 350 334 327 319 314 311 306 300 289 279 276 273 272 272 271 272 276 283 285 278 272 254
4 233 212 311 211 118 143 277 346 184 187 185 187 186 175 174 175 173 170 161 154 145 140 130 19 315 316 319 321 323 322 318 316 313 308 299 284 273 270 268 267 266 266 265 270 278 283 280 273
254 255 254 258 260 201 174 266 297 189 186 189 186 182 181 183 178 177 171 163 161 161 179 245 296 304 312 316 317 316 315 313 311 308 306 302 293 282 274 269 264 262 262 261 262 268 277 276 267
116 217 274 210 191 222 232 255 270 196 219 217 201 192 187 186 178 176 168 167 174 187 223 280 300 309 312 313 316 316 318 315 312 309 306 300 293 286 279 273 267 263 261 259 258 260 264 265 255
220 262 282 294 136 173 331 273 243 215 220 227 219 204 192 187 180 173 172 178 190 213 252 283 298 305 309 313 317 317 316 313 309 309 305 302 297 292 284 277 271 263 260 256 254 254 256 260 250
215 188 223 224 37 35 336 295 237 216 229 247 238 230 206 191 181 174 178 184 195 220 248 277 295 308 315 316 316 314 311 308 306 305 302 293 292 296 296 288 279 270 264 258 252 248 249 252 254
241 316 259 164 86 235 45 270 288 233 238 242 232 215 205 189 181 178 182 186 198 223 261 292 307 311 314 318 319 320 321 319 314 308 305 297 288 288 296 290 282 279 270 265 254 250 245 246 252
229 52 81 64 86 31 319 65 265 302 259 231 206 192 185 182 178 179 181 189 203 236 274 293 310 320 321 324 322 319 317 317 310 308 302 297 289 284 289 289 285 278 277 266 257 251 245 242 246
155 79 53 65 86 343 249 166 264 198 212 180 177 175 170 169 170 174 180 189 205 242 285 309 318 323 325 328 326 316 314 312 307 303 301 299 292 283 280 279 276 272 271 268 263 256 249 247 245
81 70 351 0 10 227 332 32 260 301 278 212 175 169 164 164 166 172 178 186 212 263 302 316 321 323 326 332 333 324 315 308 303 301 298 297 296 290 282 276 275 269 265 260 258 257 254 252 250
168 155 155 203 196 266 72 237 252 250 292 256 175 168 164 163 164 166 171 188 220 286 312 320 318 325 334 331 325 322 318 314 312 307 298 295 294 291 287 275 270 266 263 258 261 257 254 253 249
183 187 173 108 115 50 237 288 305 350 343 167 162 167 169 169 169 170 177 202 246 300 316 313 323 333 331 328 324 324 329 328 323 318 317 319 321 317 304 286 271 264 257 260 258 259 258 258 256
176 161 71 16 184 261 297 270 246 323 269 152 138 170 173 172 180 182 195 225 276 306 308 322 330 330 330 327 324 322 329 332 334 330 324 321 315 314 311 306 292 273 262 256 258 257 258 257 257
142 205 68 117 144 175 275 264 213 263 193 177 175 179 174 177 189 204 232 247 281 296 317 326 326 329 330 329 323 318 321 325 321 318 319 313 312 316 314 307 300 289 281 271 260 261 259 257 254
185 198 157 136 225 180 149 272 275 266 201 179 185 181 177 181 188 221 230 253 279 303 317 330 332 332 334 337 329 336 327 323 316 316 316 317 318 315 313 310 297 286 289 274 272 268 264 261 249
Height
1492 1493 1494 1495 1506 1510 1510 1502 1498 1497 1497 1494 1495 1495 1498 1501 1501 1511 1505 1506 1508 1511 1514 1516 1518 1520 1521 1522 1524 1525 1526 1528 1529 1530 1532 1533 1534 1534 1535 1536 1537 1538 1539 1540 1540 1540 1540 1541 1542
1492 1493 1495 1495 1512 1517 1510 1498 1496 1494 1495 1495 1496 1498 1499 1503 1503 1503 1506 1507 1508 1511 1513 1516 1517 1520 1521 1523 1524 1525 1527 1528 1530 1531 1532 1533 1534 1535 1536 1537 1537 1538 1540 1540 1541 1542 1541 1542 1542
1493 1494 1495 1502 1518 1515 1509 1496 1494 1493 1495 1495 1497 1498 1500 1503 1504 1504 1505 1507 1509 1511 1513 1516 1517 1519 1521 1523 1525 1526 1527 1528 1530 1531 1532 1533 1535 1535 1536 1537 1538 1539 1540 1541 1542 1542 1542 1542 1543
1494 1496 1498 1505 1507 1500 1498 1495 1494 1493 1495 1496 1497 1501 1502 1503 1504 1505 1506 1507 1509 1510 1514 1515 1517 1518 1520 1522 1524 1526 1527 1528 1530 1531 1532 1534 1534 1535 1536 1537 1538 1539 1540 1541 1542 1543 1543 1543 1543
1495 1495 1508 1508 1503 1497 1496 1495 1495 1495 1495 1496 1497 1502 1503 1504 1505 1506 1507 1508 1510 1511 1512 1515 1517 1518 1520 1522 1524 1525 1526 1527 1529 1531 1532 1533 1534 1535 1536 1537 1537 1538 1539 1541 1542 1542 1543 1543 1543
1497 1499 1513 1514 1506 1497 1495 1494 1494 1495 1496 1497 1498 1501 1505 1506 1506 1507 1508 1509 1510 1512 1513 1515 1516 1518 1519 1521 1523 1525 1526 1526 1527 1529 1531 1532 1533 1534 1535 1536 1537 1538 1538 1540 1541 1541 1542 1542 1543
1497 1504 1510 1507 1506 1499 1495 1493 1495 1496 1496 1497 1498 1503 1505 1506 1507 1508 1509 1511 1512 1513 1514 1515 1515 1516 1518 1519 1522 1521 1523 1526 1527 1528 1530 1531 1532 1533 1535 1535 1536 1537 1537 1538 1539 1540 1541 1541 1542
1496 1500 1504 1506 1506 1500 1493 1494 1494 1495 1497 1498 1498 1502 1505 1505 1507 1509 1510 1511 1513 1514 1515 1516 1516 1517 1517 1519 1520 1521 1522 1523 1525 1526 1528 1530 1531 1532 1533 1534 1535 1536 1536 1537 1538 1538 1539 1541 1542
1496 1506 1510 1498 1503 1495 1494 1494 1496 1496 1497 1498 1498 1500 1501 1504 1506 1509 1510 1511 1512 1513 1514 1515 1515 1516 1517 1518 1520 1521 1522 1523 1524 1525 1527 1528 1529 1530 1531 1532 1534 1534 1534 1535 1536 1537 1538 1539 1540
1497 1508 1500 1493 1493 1494 1494 1494 1496 1497 1497 1498 1499 1499 1501 1505 1506 1508 1510 1510 1512 1512 1513 1514 1515 1515 1515 1517 1519 1520 1521 1522 1523 1524 1526 1526 1527 1528 1529 1530 1531 1532 1532 1533 1534 1534 1536 1537 1538
1496 1501 1495 1493 1493 1492 1493 1494 1496 1497 1498 1497 1498 1499 1502 1505 1506 1507 1509 1510 1511 1512 1512 1512 1512 1513 1514 1516 1518 1519 1520 1521 1522 1523 1524 1525 1526 1527 1527 1528 1528 1529 1530 1530 1531 1532 1533 1534 1535
1498 1495 1496 1495 1495 1494 1493 1493 1495 1497 1496 1496 1498 1500 1502 1505 1506 1507 1508 1510 1512 1512 1512 1512 1513 1514 1515 1516 1517 1518 1520 1521 1521 1522 1523 1524 1525 1525 1526 1526 1526 1527 1527 1527 1527 1529 1530 1531 1533
1496 1495 1494 1495 1495 1494 1495 1493 1494 1495 1495 1495 1498 1501 1503 1506 1507 1508 1509 1511 1512 1513 1513 1513 1514 1516 1516 1517 1517 1518 1519 1520 1521 1521 1522 1522 1523 1523 1523 1524 1524 1524 1524 1524 1524 1525 1526 1528 1529
1496 1495 1495 1494 1495 1494 1496 1495 1491 1493 1494 1496 1499 1501 1504 1505 1507 1508 1509 1511 1512 1513 1514 1515 1517 1518 1519 1519 1519 1519 1521 1521 1521 1520 1521 1520 1520 1520 1521 1521 1521 1521 1521 1521 1521 1522 1522 1523 1524
1496 1496 1496 1494 1494 1495 1494 1497 1492 1491 1494 1496 1499 1501 1503 1505 1507 1509 1511 1511 1513 1514 1516 1517 1518 1518 1520 1520 1520 1520 1520 1520 1520 1519 1519 1518 1518 1518 1517 1517 1518 1518 1517 1518 1518 1518 1518 1519 1520
1498 1500 1502 1493 1492 1495 1497 1498 1489 1490 1493 1495 1499 1501 1502 1504 1507 1509 1511 1512 1514 1515 1516 1517 1518 1518 1519 1519 1519 1518 1517 1517 1516 1515 1515 1514 1514 1514 1514 1514 1514 1514 1514 1514 1515 1515 1515 1515 1515
1507 1513 1503 1495 1495 1493 1498 1495 1491 1489 1491 1494 1496 1499 1501 1504 1506 1508 1511 1512 1514 1515 1516 1517 1517 1518 1517 1516 1516 1516 1515 1514 1512 1511 1511 1510 1509 1509 1509 1509 1510 1509 1510 1511 1511 1512 1512 1512 1512
1506 1504 1501 1499 1496 1496 1496 1497 1491 1491 1492 1492 1494 1497 1499 1502 1504 1507 1510 1511 1513 1514 1515 1516 1516 1516 1516 1515 1514 1513 1512 1511 1509 1508 1507 1505 1504 1503 1503 1504 1504 1504 1505 1506 1507 1508 1509 1509 1509
1499 1502 1498 1494 1495 1497 1496 1495 1491 1489 1492 1492 1493 1494 1496 1500 1503 1506 1508 1510 1512 1513 1514 1515 1514 1514 1513 1512 1510 1508 1507 1506 1505 1503 1502 1501 1500 1499 1498 1498 1498 1499 1500 1502 1502 1503 1504 1505 1506
1499 1500 1503 1496 1495 1497 1496 1492 1486 1486 1486 1489 1490 1491 1493 1498 1500 1503 1505 1508 1510 1512 1512 1513 1513 1512 1511 1510 1508 1505 1502 1500 1499 1498 1497 1495 1494 1494 1493 1492 1492 1493 1493 1495 1497 1498 1499 1501 1502
1499 1501 1499 1500 1498 1498 1499 1496 1486 1483 1483 1484 1486 1490 1490 1493 1497 1500 1503 1506 1508 1510 1511 1511 1511 1510 1509 1507 1504 1502 1499 1497 1494 1493 1492 1491 1490 1489 1488 1488 1487 1487 1487 1488 1490 1492 1493 1495 1497
1496 1497 1497 1497 1509 1516 1506 1515 1489 1484 1482 1481 1481 1483 1487 1492 1496 1499 1502 1504 1506 1508 1509 1508 1508 1508 1506 1503 1501 1497 1494 1491 1490 1489 1488 1487 1486 1485 1484 1483 1483 1482 1482 1482 1484 1486 1488 1490 1492
1499 1499 1501 1505 1519 1520 1509 1527 1488 1485 1482 1479 1478 1479 1484 1490 1496 1499 1502 1503 1505 1506 1506 1506 1505 1504 1502 1500 1497 1494 1491 1488 1486 1486 1484 1483 1482 1481 1480 1479 1478 1478 1477 1478 1479 1480 1481 1483 1485
1499 1500 1506 1516 1524 1539 1508 1511 1489 1487 1475 1474 1476 1477 1481 1487 1493 1499 1502 1503 1503 1504 1504 1503 1502 1501 1499 1497 1494 1491 1487 1485 1484 1482 1480 1478 1476 1476 1475 1474 1473 1473 1472 1473 1473 1475 1476 1477 1478
1499 1505 1538 1539 1554 1519 1514 1517 1486 1477 1475 1472 1473 1476 1481 1487 1490 1495 1500 1502 1502 1502 1502 1501 1500 1498 1495 1493 1490 1487 1484 1483 1480 1477 1474 1472 1470 1470 1469 1469 1468 1467 1467 1467 1468 1468 1469 1470 1472
1498 1502 1528 1542 1538 1521 1510 1508 1482 1476 1475 1473 1475 1479 1484 1489 1492 1494 1498 1500 1501 1500 1500 1499 1497 1495 1491 1488 1487 1484 1481 1478 1475 1471 1469 1466 1465 1463 1462 1461 1461 1461 1461 1461 1462 1462 1463 1463 1464
1500 1507 1501 1516 1521 1534 1505 1494 1477 1475 1474 1474 1476 1481 1485 1490 1493 1494 1496 1498 1499 1499 1497 1496 1494 1491 1488 1485 1482 1479 1476 1474 1470 1468 1465 1463 1460 1458 1456 1454 1453 1454 1455 1455 1456 1455 1456 1458 1458
1495 1498 1513 1515 1523 1525 1512 1501 1493 1479 1479 1480 1480 1481 1485 1490 1494 1495 1496 1497 1497 1496 1495 1493 1490 1487 1484 1481 1478 1476 1473 1471 1469 1466 1464 1460 1457 1454 1451 1449 1447 1446 1447 1447 1448 1448 1449 1450 1451
1501 1499 1504 1509 1517 1535 1528 1494 1483 1478 1477 1480 1481 1483 1485 1488 1492 1494 1495 1495 1494 1494 1492 1489 1487 1484 1481 1478 1475 1472 1469 1468 1466 1464 1462 1457 1453 1450 1447 1444 1441 1439 1439 1439 1439 1440 1441 1442 1444
1493 1495 1497 1513 1512 1522 1527 1503 1474 1474 1473 1475 1481 1483 1485 1487 1490 1492 1492 1493 1492 1491 1489 1487 1484 1482 1479 1476 1473 1470 1467 1465 1463 1461 1458 1454 1450 1446 1442 1438 1433 1433 1432 1432 1432 1433 1434 1434 1436